LogoCoinalyze
    Ad-Free Version Главная Рынки Ставки финансирования
    Фьючерсные данные
    • Агрегированные данные (Коины)
    • Индивидуальные графики
    • Глобальные графики
    Оповещения
    TA
    Bitcoin Ethereum BNB Ripple Tron ZCash Dogecoin Monero Chainlink UNUS SED LEO Cardano Stellar Lumens Bitcoin Cash Litecoin Hedera Cronos Polkadot Ethereum Classic Algorand Cosmos Quant Dash VeChain Bitcoin SV BitTorrent Terra Decred Tezos Iota The Graph THETA Decentraland NEO Chiliz MultiversX Horizen Golem Basic Attention Token Qtum DigiByte 0x Beam RIF Token FTX Token Holo FUNToken Zilliqa Ontology aelf Nano Enjin Coin Ravencoin Mask Network Verge Siacoin Status WINk Waves IoTeX iExec RLC Power Ledger Steem Kyber Network Crystal Lisk Ark WOO Network Ardor IOST WAX Icon Storj Wanchain Loopring Bitcoin Diamond Augur AdEx Bitcoin Gold OmiseGO NEM MonaCoin BitShares Ren Komodo V Systems Nuls Mithril SOLVE EOS Aion Nebulas Maker HedgeTrade Bread Fetch.ai TomoChain Polygon Fantom Waltonchain GXChain Bytom Metaverse ETP MaidSafeCoin QASH
    Заказать:
    Еще
    • API
    • Паттерны свечей
    • Пожертвования
    • Контактная
    • Карта сайта
    • Privacy Policy
    • Disclaimer
    • Theme:
    Русский
    • English
    • Français
    • Deutsch
    • Türkçe
    • Nederlands
    • Português (BR)
    • Español
    • 한국어
    • 简体中文
    • 日本語
     
    Войти / Подписаться
    Markets/ Pepe/ PEPE к USD/ PEPEUSD Bitfinex
    Trades
    WL
    Чат
    Стат
    Новости
    ⦷
    AAA
    0.00000366 982952.96757179 23:11:41
    0.00000366 943781.46631109 23:11:41
    0.00000367 21629493.97799000 23:08:35
    0.00000367 21629493.97799000 23:07:44
    0.00000367 567837.18446326 23:07:37
    0.00000366 21629493.97799000 22:55:09
    0.00000367 1040451.73559230 22:54:27
    0.00000367 676604.16186717 22:54:27
    0.00000368 21629493.97799000 22:51:46
    0.00000368 647926.21083945 22:51:46
    0.00000368 996857.72898811 22:51:46
    0.00000369 609682.93781921 22:32:17
    0.00000369 394742.49093693 22:32:17
    0.00000370 542902.64643508 22:27:14
    0.00000371 715597.89435923 22:25:31
    0.00000371 505107.23826670 22:25:31
    0.00000372 707176.11944574 22:23:18
    0.00000372 437341.05426222 22:21:29
    0.00000372 560673.74540573 22:19:44
    0.00000374 1997328.15459299 22:11:42
    0.00000373 392236.04850447 22:10:35
    0.00000373 603195.28390109 22:10:35
    0.00000374 2333842.50066381 22:06:21
    0.00000374 1517695.03926798 22:06:21
    0.00000376 876228.87343984 22:00:21
    0.00000376 793038.80334281 22:00:21
    0.00000377 554146.91917973 21:55:07
    0.00000378 766767.83437466 21:44:38
    0.00000378 498634.05422031 21:44:38
    0.00000377 0.00000001 21:40:36
    0.00000377 1023851.64638870 21:40:23
    0.00000377 665797.12628703 21:40:23
    0.00000379 1051906.32072627 21:38:19
    0.00000379 1197258.14862293 21:38:19
    0.00000378 420941.74522161 21:32:17
    0.00000377 755440.81264460 21:17:13
    0.00000377 491209.86406740 21:17:13
    0.00000376 1440258.65571308 20:41:23
    0.00000376 936366.39915364 20:41:23
    0.00000375 381535201.12062490 20:37:08
    0.00000376 1882541.00434110 20:37:00
    0.00000377 1102659.01011863 20:34:21
    0.00000377 1585142.11675816 20:34:20
    0.00000378 460348.87297654 20:14:56
    0.00000379 525868.70874264 20:10:20
    0.00000379 21629493.97799000 20:09:39
    0.00000380 21629493.97799000 19:55:17
    0.00000379 456324.66813319 19:47:51
    0.00000380 576556.74802038 19:42:19
    0.00000380 886723.08386552 19:42:19
    0.00000380 949535.99753806 19:16:09
    0.00000380 1001082.71942752 19:16:09
    0.00000381 715317.62411469 19:12:57
    0.00000382 473589.68405461 19:06:34
    0.00000382 21629493.97799000 19:04:03
    0.00000382 471155.56272035 18:55:34
    0.00000383 6885720.04141040 18:49:58
    0.00000382 665263.95822557 18:42:13
    0.00000382 865752.26749563 18:42:13
    0.00000383 434210.88535892 18:34:55
    0.00000383 499342.66586723 18:31:58
    0.00000384 491074.53712654 18:26:20
    0.00000384 0.00000001 18:25:34
    0.00000384 1691943.34234529 18:25:34
    0.00000384 1451233.42656668 18:25:34
    0.00000386 3417468.48208580 18:20:45
    0.00000386 539678.55183649 18:18:21
    0.00000387 2306040.70182293 18:14:32
    0.00000387 3545925.69994872 18:14:32
    0.00000385 21629493.97799000 18:04:03
    0.00000385 32441838.20519481 17:47:07
    0.00000385 386100176.87707907 17:47:07
    0.00000385 49955790.87888051 17:47:07
    0.00000385 21629493.97799000 17:47:07
    0.00000385 101729521.29099400 17:47:07
    0.00000384 21629493.97799000 17:47:07
    0.00000383 1132532.38058620 17:46:18
    0.00000383 1741426.48887878 17:46:17
    0.00000380 557104.06696453 17:25:12
    0.00000380 856628.11446154 17:25:12
    0.00000380 21629493.97799000 17:25:12
    0.00000381 923199.95941561 17:22:20
    0.00000381 1006357.97312486 17:22:19
    0.00000382 413117.15143120 17:20:21
    0.00000383 582704.96500268 17:12:42
    0.00000383 562808.88684177 17:12:42
    0.00000383 834291.01446151 17:10:20
    0.00000384 500982.47597891 17:05:06
    0.00000383 1068827.29927760 17:00:18
    0.00000383 1643462.55179482 17:00:18
    0.00000384 77787150.39365999 16:56:05
    0.00000384 21629493.97799000 16:56:05
    0.00000385 21629493.97799000 16:56:05
    0.00000385 1427684.26347497 16:54:18
    0.00000385 2195635.03328382 16:54:18
    0.00000383 5409736.37414848 16:38:18
    0.00000383 8318156.17720580 16:38:18
    0.00000381 21629493.97799000 16:31:37
    0.00000377 899165.06101478 16:28:19
    0.00000378 21629493.97799000 16:26:33
    Выйти
    AAA
    Помощь
    🙂 🤣 😎 🤗 😛 😉 😜 🤑 🤔 😑 😴 😕 🙃 😲 😇 🙁 😢 😬 😟 😠 🕺 🏃 💪 ✌ 👌 👍 👎 👏 👋 🤝 🍺 🍻 🐋 🐟 🦈 🗽 🚄 ✈ 🛑 🚀 🏦 🌚 ⭐ 🌞 ⚡ 🏆 💰 💲 🔨 ❓ ❗ 💯 🔶 🏁
    ☺
    Войти или Подписаться и Чат
    24 Часа
    Изменения
    +6.40%
    Объем
    2,779,286,421
    Хай
    0.00000387
    Лоу
    0.00000341
    7 Дней
    Изменения
    -4.69%
    Объем
    40,209,129,454
    Хай
    0.00000400
    Лоу
    0.00000337
    30 Дней
    Изменения
    +26.64%
    Объем
    231,658,247,534
    Хай
    0.00000454
    Лоу
    0.00000254
    DOGE, SHIB, PEPE, or Something Else: Which Meme Coin Can Make History in September? (3 AIs Weigh In)
    "DOGE remains the most likely to record the largest move in dollar terms and lead the entire sector," ChatGPT stated.
    cryptopotato.com
    Sept 3, 2026 00:41
    Pepe price rallies 25% as whale demand and futures interest surge
    Key takeaways Pepe has gained 25% this week, including a combined 22% advance over the previous two days. Seven whale transactions worth more than $1 million each occurred Thursday, the highest...
    coinjournal.net
    Aug 21, 2026 08:41
    PEPE Supply on Exchanges Just Took a Massive Hit – What’s Next?
    A drop in PEPE exchange balances has added to bullish expectations despite muted trader interest.
    cryptopotato.com
    Aug 6, 2026 20:02
    PEPE Exchange Outflows Hit Nearly 2-Year High as Whales Accumulate
    Pepe (PEPE) recorded its largest single-day exchange outflow since November 2024, with 4.54 trillion tokens leaving trading platforms, signaling that holders are moving supply away from immediate...
    beincrypto.com
    Aug 6, 2026 04:57
    Meme Coin Based on White House Shooter Conspiracy Rallies 320%
    $HENRY surged 300% after a 2023 Pepe tweet appeared to name the White House shooter, fueling a viral time-travel meme. The post Meme Coin Based on White House Shooter Conspiracy Rallies 320%...
    beincrypto.com
    Apr 27, 2026 16:11
    PEPE surges 4% as market sentiment improves, eyes Key resistance breakout
    Key takeaways Pepe extends gains on Wednesday, stretching its rally from the 50-day EMA. Derivatives data show heightened retail activity as risk-on sentiment returns to the market. Pepe (PEPE) is...
    coinjournal.net
    Apr 22, 2026 11:44
    Why The PEPE Price Could Stage A 55X Rally To Reach New $0.0001 ATH
    The PEPE price has now started to edge back into bullish conversations after the recent inflows into the crypto market. The last time PEPE’s weekly chart printed the kind of structure now...
    newsbtc.com
    Apr 21, 2026 15:30
    Pepe (PEPE) surges 9%, drawing interest from whales
    Key takeaways PEPE is up 9% in the last 24 hours, making it one of the best performers among the top 50 cryptocurrencies by market cap. The rally comes amid renewed interest from whales and retail...
    coinjournal.net
    Apr 16, 2026 07:40
    Murad Says SPX6900 (SPX) Is Primed for a Rally — Is He Right This Time?
    Crypto influencer Murad Mahmudov claims SPX6900 (SPX) is stabilizing at the same market cap level where Dogecoin (DOGE) and Pepe (PEPE) consolidated before their explosive rallies. The...
    beincrypto.com
    Apr 5, 2026 21:36
    The Shiba Inu Of This Cycle: Analyst Shares Why It Is Better To Buy PEPE Now
    In the bull market cycle of 2021-2022, the Shiba Inu meme coin made waves in a way that changed the face of meme coins forever. This came after Dogecoin’s initial 36,000% rally, and Shiba Inu...
    newsbtc.com
    Apr 4, 2026 07:30
    PEPE Explodes by 18% Amid Altcoin Rally, BTC Tapped $74K: Market Watch
    The frog-themed meme coin is today's biggest gainer, followed by TAO, DOT, and BONK.
    cryptopotato.com
    Mar 16, 2026 10:56
    Should PEPE traders brace for volatility as short squeeze potential builds?
    The memecoin market has seen its collective market capitalization drop by 48% over the past year, and 6.9% over the past month, according to CoinMarketCap. According to Glassnode, the memecoin...
    ambcrypto.com
    Mar 7, 2026 18:00
    Просто напечатайте соответствующую команду в чате. Заменить никнейм 1 на действительный никнейм
    • /ignore nick1 Игнорировать пользователя чатом
    • /unignore nick1 Перестать игнорировать пользователя чатом
    • /ignorelist Показать проигнорированных пользователей чатом